STARLINK-1704 (47625 NORAD) Tracking and Keplerian Element Data

This shows tracking and keplerian element data for the satellite.

Feedback or suggestion? Click here.




ElementValue
Catalog47625
NameSTARLINK-1704
Epoch Orbit175
Epoch Day101.91668981
Epoch Year2021
RAAN199.6774
Inclination53.0543
Eccentricity0.0001187
Argument of Perigee71.7866
Mean Anonmoly46.2547
Mean Motion15.06416607
Decay Rate-0.00033373
L11 47625U 21012F 21101.91668981 -.00033373 00000-0 -22311-2 0 9995
L22 47625 53.0543 199.6774 0001187 71.7866 46.2547 15.06416607 1758

Live tracking and technical data element details for STARLINK-1704 (NORAD 47625). STARLINK-1704 can be tracked NOW for your location showing map with azimuth and elevation plus other details from your city location.

Track the satellite on the map from your city or location and see movement details for azimuth, elevation, latitude, longitude, range, height, and movement on the map or in text.







IsCatalogInMostPopularTable: catalog: 47625, numindb: 13
Update: records affected: 1



GetName: 47625 STARLINK-1704

Hit Count: updated at: Tue, 13 Apr 2021 03:31:43 GMT